TimeAKDT,TemperatureF,Dew PointF,Humidity,Sea Level PressureIn,VisibilityMPH,Wind Direction,Wind SpeedMPH,Gust SpeedMPH,PrecipitationIn,Events,Conditions,WindDirDegrees,DateUTC
12:16 AM,48.2,39.2,71,29.80,10.0,Calm,Calm,-,N/A,,Clear,0,2013-09-05 08:16:00
12:36 AM,48.2,39.2,71,29.81,10.0,SE,4.6,-,N/A,,Clear,130,2013-09-05 08:36:00
12:56 AM,42.8,39.2,87,29.81,10.0,Calm,Calm,-,N/A,,Clear,0,2013-09-05 08:56:00
1:16 AM,41.0,37.4,87,29.82,10.0,Calm,Calm,-,N/A,,Clear,0,2013-09-05 09:16:00
1:36 AM,39.2,35.6,87,29.82,10.0,East,4.6,-,N/A,,Clear,80,2013-09-05 09:36:00
1:56 AM,39.2,35.6,87,29.83,10.0,Calm,Calm,-,N/A,,Scattered Clouds,0,2013-09-05 09:56:00
2:16 AM,42.8,37.4,81,29.84,10.0,East,3.5,-,N/A,,Partly Cloudy,80,2013-09-05 10:16:00
2:36 AM,42.8,37.4,81,29.84,10.0,Calm,Calm,-,N/A,,Mostly Cloudy,0,2013-09-05 10:36:00
2:56 AM,42.8,39.2,87,29.84,10.0,Calm,Calm,-,N/A,,Scattered Clouds,0,2013-09-05 10:56:00
3:16 AM,41.0,35.6,81,29.85,10.0,Calm,Calm,-,N/A,,Clear,0,2013-09-05 11:16:00
3:36 AM,39.2,35.6,87,29.85,10.0,ENE,3.5,-,N/A,,Clear,70,2013-09-05 11:36:00
3:56 AM,39.2,35.6,87,29.85,10.0,Calm,Calm,-,N/A,,Scattered Clouds,0,2013-09-05 11:56:00
4:16 AM,39.2,35.6,87,29.85,10.0,Calm,Calm,-,N/A,,Mostly Cloudy,0,2013-09-05 12:16:00
4:36 AM,39.2,37.4,93,29.86,10.0,Calm,Calm,-,N/A,,Scattered Clouds,0,2013-09-05 12:36:00
4:56 AM,39.2,35.6,87,29.85,10.0,Calm,Calm,-,N/A,,Scattered Clouds,0,2013-09-05 12:56:00
5:16 AM,39.2,35.6,87,29.87,10.0,Calm,Calm,-,N/A,,Mostly Cloudy,0,2013-09-05 13:16:00
5:36 AM,39.2,35.6,87,29.87,10.0,East,3.5,-,N/A,,Overcast,80,2013-09-05 13:36:00
5:56 AM,39.2,35.6,87,29.87,10.0,Calm,Calm,-,N/A,,Overcast,0,2013-09-05 13:56:00
6:16 AM,39.2,35.6,87,29.88,10.0,Calm,Calm,-,N/A,,Mostly Cloudy,0,2013-09-05 14:16:00
6:36 AM,41.0,37.4,87,29.87,10.0,East,3.5,-,N/A,,Overcast,90,2013-09-05 14:36:00
6:56 AM,41.0,37.4,87,29.88,10.0,Calm,Calm,-,N/A,,Overcast,0,2013-09-05 14:56:00
7:16 AM,41.0,37.4,87,29.89,10.0,Calm,Calm,-,N/A,,Overcast,0,2013-09-05 15:16:00
7:36 AM,41.0,37.4,87,29.89,10.0,East,4.6,-,N/A,,Overcast,80,2013-09-05 15:36:00
7:56 AM,42.8,39.2,87,29.89,10.0,East,5.8,-,N/A,,Overcast,90,2013-09-05 15:56:00
8:16 AM,42.8,39.2,87,29.90,10.0,East,3.5,-,N/A,,Overcast,90,2013-09-05 16:16:00
8:36 AM,42.8,37.4,81,29.91,10.0,East,4.6,-,N/A,,Overcast,80,2013-09-05 16:36:00
8:56 AM,42.8,39.2,87,29.92,10.0,ESE,3.5,-,N/A,,Overcast,110,2013-09-05 16:56:00
9:16 AM,42.8,39.2,87,29.92,10.0,East,4.6,-,N/A,,Overcast,80,2013-09-05 17:16:00
9:36 AM,44.6,39.2,81,29.93,10.0,ENE,3.5,-,N/A,,Overcast,70,2013-09-05 17:36:00
9:56 AM,44.6,41.0,87,29.93,10.0,ESE,3.5,-,N/A,,Overcast,110,2013-09-05 17:56:00
10:16 AM,44.6,41.0,87,29.94,10.0,East,4.6,-,N/A,,Overcast,90,2013-09-05 18:16:00
10:36 AM,46.4,42.8,87,29.94,10.0,Calm,Calm,-,N/A,,Overcast,0,2013-09-05 18:36:00
10:56 AM,46.4,42.8,87,29.95,10.0,East,4.6,-,N/A,,Overcast,100,2013-09-05 18:56:00
11:16 AM,46.4,42.8,87,29.95,10.0,East,4.6,-,N/A,,Overcast,90,2013-09-05 19:16:00
11:36 AM,48.2,44.6,87,29.96,10.0,East,3.5,-,N/A,,Overcast,100,2013-09-05 19:36:00
11:56 AM,50.0,44.6,82,29.96,10.0,ESE,4.6,-,N/A,,Overcast,110,2013-09-05 19:56:00
12:16 PM,50.0,44.6,82,29.96,10.0,East,5.8,-,N/A,,Overcast,90,2013-09-05 20:16:00
12:36 PM,51.8,44.6,76,29.97,10.0,Calm,Calm,-,N/A,,Overcast,0,2013-09-05 20:36:00
12:56 PM,53.6,44.6,72,29.97,10.0,NE,3.5,-,N/A,,Overcast,50,2013-09-05 20:56:00
1:16 PM,53.6,46.4,77,29.98,10.0,Calm,Calm,-,N/A,,Overcast,0,2013-09-05 21:16:00
1:36 PM,55.4,44.6,67,29.97,10.0,Calm,Calm,-,N/A,,Overcast,0,2013-09-05 21:36:00
1:56 PM,55.4,44.6,67,29.98,10.0,Calm,Calm,-,N/A,,Overcast,0,2013-09-05 21:56:00
2:16 PM,59.0,42.8,55,29.98,10.0,South,6.9,-,N/A,,Overcast,190,2013-09-05 22:16:00
2:36 PM,60.8,39.2,45,29.98,10.0,South,10.4,18.4,N/A,,Overcast,190,2013-09-05 22:36:00
2:56 PM,60.8,39.2,45,29.98,10.0,SSW,9.2,-,N/A,,Overcast,210,2013-09-05 22:56:00
3:16 PM,57.2,44.6,63,29.98,10.0,West,12.7,-,N/A,,Overcast,270,2013-09-05 23:16:00
3:36 PM,57.2,44.6,63,29.98,10.0,West,9.2,-,N/A,,Overcast,280,2013-09-05 23:36:00
3:56 PM,55.4,44.6,67,29.99,10.0,NW,6.9,-,N/A,,Overcast,310,2013-09-05 23:56:00
4:16 PM,55.4,44.6,67,29.99,10.0,WNW,5.8,-,N/A,,Overcast,300,2013-09-06 00:16:00
4:36 PM,55.4,44.6,67,29.99,10.0,NW,4.6,-,N/A,,Overcast,320,2013-09-06 00:36:00
4:56 PM,55.4,44.6,67,29.99,10.0,NNW,4.6,-,N/A,,Overcast,340,2013-09-06 00:56:00
5:16 PM,55.4,44.6,67,29.99,10.0,NW,3.5,-,N/A,,Overcast,320,2013-09-06 01:16:00
5:36 PM,55.4,44.6,67,29.99,10.0,NW,5.8,-,N/A,,Overcast,310,2013-09-06 01:36:00
5:56 PM,55.4,42.8,63,29.99,10.0,WNW,4.6,-,N/A,,Overcast,300,2013-09-06 01:56:00
6:16 PM,55.4,44.6,67,29.99,10.0,NNW,3.5,-,N/A,,Overcast,330,2013-09-06 02:16:00
6:36 PM,55.4,44.6,67,29.99,10.0,NNW,3.5,-,N/A,,Overcast,340,2013-09-06 02:36:00
6:56 PM,55.4,44.6,67,29.99,10.0,NNE,4.6,-,N/A,,Mostly Cloudy,30,2013-09-06 02:56:00
7:16 PM,55.4,44.6,67,29.98,10.0,NNE,3.5,-,N/A,,Mostly Cloudy,20,2013-09-06 03:16:00
7:36 PM,55.4,44.6,67,29.99,10.0,North,3.5,-,N/A,,Overcast,360,2013-09-06 03:36:00
7:56 PM,55.4,44.6,67,29.98,10.0,Calm,Calm,-,N/A,,Overcast,0,2013-09-06 03:56:00
8:16 PM,53.6,44.6,72,29.99,10.0,Calm,Calm,-,N/A,,Overcast,0,2013-09-06 04:16:00
8:36 PM,53.6,44.6,72,29.99,10.0,Calm,Calm,-,N/A,,Overcast,0,2013-09-06 04:36:00
8:56 PM,53.6,44.6,72,29.99,10.0,NNE,4.6,-,N/A,,Overcast,20,2013-09-06 04:56:00
9:16 PM,53.6,44.6,72,29.99,10.0,Calm,Calm,-,N/A,,Overcast,0,2013-09-06 05:16:00
9:36 PM,51.8,44.6,76,29.99,10.0,Calm,Calm,-,N/A,,Overcast,0,2013-09-06 05:36:00
9:56 PM,51.8,44.6,76,29.99,10.0,Calm,Calm,-,N/A,,Overcast,0,2013-09-06 05:56:00
10:16 PM,51.8,44.6,76,30.00,10.0,Calm,Calm,-,N/A,,Overcast,0,2013-09-06 06:16:00
10:36 PM,51.8,44.6,76,29.99,10.0,WNW,3.5,-,N/A,,Overcast,300,2013-09-06 06:36:00
10:56 PM,50.0,44.6,82,29.99,10.0,Calm,Calm,-,N/A,,Overcast,0,2013-09-06 06:56:00
11:16 PM,50.0,44.6,82,29.99,10.0,Calm,Calm,-,N/A,,Overcast,0,2013-09-06 07:16:00
11:36 PM,48.2,44.6,87,29.99,10.0,Calm,Calm,-,N/A,,Overcast,0,2013-09-06 07:36:00
11:56 PM,50.0,44.6,82,29.98,10.0,Calm,Calm,-,N/A,,Overcast,0,2013-09-06 07:56:00